KB2SKP Weather Reports


Display with metric or nautical units.
time (UTC)temp
F
wind
direction
speed
MPH
gust
MPH
rain 1hr
in
rain 24hr
in
rain mn
in
humidity
%
barometer
mb
20260901085306 73 267 1.0 2.0 0.00 0.00 0.00 98 1013.4
20260901084802 73 333 0.0 1.0 0.00 0.00 0.00 98 1013.3
20260901084258 73 307 0.0 1.0 0.00 0.00 0.00 98 1013.3
20260901083757 73 296 0.0 1.0 0.00 0.00 0.00 98 1013.0
20260901083257 73 221 0.0 2.0 0.00 0.00 0.00 98 1013.2
20260901082755 73 346 0.0 3.0 0.00 0.00 0.00 98 1013.3
20260901082251 73 247 0.0 1.0 0.00 0.00 0.00 98 1013.3
20260901081746 73 281 1.0 1.0 0.00 0.00 0.00 98 1013.2
20260901081246 73 315 0.0 2.0 0.00 0.00 0.00 98 1013.1
20260901080741 73 245 0.0 1.0 0.00 0.00 0.00 98 1013.4
20260901080240 73 299 0.0 2.0 0.00 0.00 0.00 98 1013.3
20260901075734 74 331 0.0 3.0 0.00 0.00 0.00 98 1013.4
20260901075230 73 293 0.0 2.0 0.00 0.00 0.00 98 1013.4
20260901074724 73 310 0.0 1.0 0.00 0.00 0.00 98 1013.2
20260901074219 74 197 0.0 2.0 0.00 0.00 0.00 98 1013.5
20260901073716 74 289 0.0 2.0 0.00 0.00 0.00 98 1013.5
20260901073211 74 261 2.0 3.0 0.00 0.00 0.00 98 1013.4
20260901072706 74 241 1.0 2.0 0.00 0.00 0.00 98 1013.6
20260901072201 74 226 0.0 2.0 0.00 0.00 0.00 98 1013.6
20260901071700 74 212 1.0 1.0 0.00 0.00 0.00 98 1013.5
20260901071155 74 180 0.0 1.0 0.00 0.00 0.00 98 1013.6
20260901070649 74 253 1.0 2.0 0.00 0.00 0.00 98 1013.6
20260901070145 74 346 1.0 1.0 0.00 0.00 0.00 98 1013.5
20260901065643 74 232 1.0 2.0 0.00 0.00 0.00 98 1013.5
20260901065138 74 260 1.0 2.0 0.00 0.00 0.00 98 1013.7
20260901064635 74 222 0.0 2.0 0.00 0.00 0.00 98 1013.9
20260901064132 74 246 1.0 2.0 0.00 0.00 0.00 98 1013.7
20260901063629 74 254 1.0 1.0 0.00 0.00 0.00 98 1013.5
20260901063124 74 283 0.0 2.0 0.00 0.00 0.00 98 1013.9
20260901062619 75 263 0.0 2.0 0.00 0.00 0.00 98 1013.7
20260901062115 75 283 3.0 3.0 0.00 0.00 0.00 98 1013.7
20260901061611 74 279 0.0 2.0 0.00 0.00 0.00 98 1013.6
20260901061105 75 266 0.0 2.0 0.00 0.00 0.00 98 1013.8
20260901060600 75 310 0.0 2.0 0.00 0.00 0.00 98 1014.0
20260901060056 75 291 0.0 3.0 0.00 0.00 0.00 98 1013.9
20260901055551 75 242 1.0 2.0 0.00 0.00 0.00 98 1014.3
20260901055048 75 269 0.0 2.0 0.00 0.00 0.00 98 1013.9
20260901054544 75 271 0.0 1.0 0.00 0.00 0.00 98 1014.0
20260901054040 75 204 1.0 2.0 0.00 0.00 0.00 98 1014.2
20260901053536 75 204 0.0 3.0 0.00 0.00 0.00 98 1014.1
20260901053032 75 255 1.0 2.0 0.00 0.00 0.00 98 1014.3
20260901052532 75 256 0.0 2.0 0.00 0.00 0.00 98 1014.4
20260901052032 75 255 0.0 2.0 0.00 0.00 0.00 98 1014.4
20260901051526 75 230 1.0 2.0 0.00 0.00 0.00 98 1014.3
20260901051025 75 236 0.0 2.0 0.00 0.00 0.00 98 1014.5
20260901050521 75 271 0.0 2.0 0.00 0.00 0.00 98 1014.5
20260901050017 75 211 0.0 2.0 0.00 0.00 0.00 98 1014.4
20260901045512 75 263 0.0 2.0 0.00 0.00 0.00 98 1014.5
20260901045012 75 285 0.0 2.0 0.00 0.00 0.00 98 1014.3
20260901044508 75 260 0.0 3.0 0.00 0.00 0.00 98 1014.4
20260901044004 75 310 0.0 2.0 0.00 0.00 0.00 97 1014.6
20260901043459 75 5 0.0 2.0 0.00 0.00 0.00 97 1014.7
20260901042954 75 207 0.0 2.0 0.00 0.00 0.00 97 1014.3
20260901042453 76 240 0.0 2.0 0.00 0.00 0.00 97 1014.6
20260901041949 76 301 1.0 3.0 0.00 0.00 0.00 98 1014.4
20260901041444 76 241 0.0 1.0 0.00 0.00 0.00 97 1014.5
20260901040943 75 320 0.0 2.0 0.00 0.00 0.00 97 1014.5
20260901040438 76 300 0.0 1.0 0.00 0.00 0.00 97 1014.6
20260901035932 76 218 0.0 3.0 0.00 0.00 0.00 97 1014.6
20260901035431 76 250 1.0 2.0 0.00 0.00 0.00 97 1014.5
20260901034929 76 250 1.0 3.0 0.00 0.00 0.00 97 1014.5
20260901034424 76 279 2.0 3.0 0.00 0.00 0.00 97 1014.5
20260901033919 76 283 0.0 2.0 0.00 0.00 0.00 97 1014.6
20260901033418 76 275 0.0 2.0 0.00 0.00 0.00 97 1014.5
20260901032917 76 193 0.0 2.0 0.00 0.00 0.00 97 1014.4
20260901032416 76 310 0.0 2.0 0.00 0.00 0.00 97 1014.4
20260901031912 76 241 0.0 2.0 0.00 0.00 0.00 97 1014.3
20260901031407 76 228 0.0 3.0 0.00 0.00 0.00 97 1014.4
20260901030907 76 249 1.0 2.0 0.00 0.00 0.00 97 1014.3
20260901030402 76 273 0.0 2.0 0.00 0.00 0.00 97 1014.5
20260901025901 76 277 0.0 2.0 0.00 0.00 0.00 97 1014.3
20260901025356 76 313 0.0 2.0 0.00 0.00 0.00 97 1014.2
20260901024850 76 266 2.0 3.0 0.00 0.00 0.00 97 1014.4
20260901024350 76 311 0.0 2.0 0.00 0.00 0.00 96 1014.4
20260901023848 76 301 0.0 2.0 0.00 0.00 0.00 97 1014.4
20260901023343 76 266 2.0 3.0 0.00 0.00 0.00 97 1014.1
20260901022838 76 224 0.0 3.0 0.00 0.00 0.00 97 1014.3
20260901022334 76 275 0.0 2.0 0.00 0.00 0.00 97 1014.3
20260901021824 76 257 2.0 3.0 0.00 0.00 0.00 97 1014.4
20260901021320 76 323 0.0 3.0 0.00 0.00 0.00 97 1014.5
20260901020814 76 189 0.0 2.0 0.00 0.00 0.00 97 1014.5
20260901020309 76 190 0.0 1.0 0.00 0.00 0.00 97 1014.6
20260901015804 76 246 0.0 1.0 0.00 0.00 0.00 97 1014.5
20260901015300 76 251 0.0 2.0 0.00 0.00 0.00 96 1014.7
20260901014759 76 285 0.0 2.0 0.00 0.00 0.00 96 1014.7
20260901014255 76 89 0.0 1.0 0.00 0.00 0.00 96 1014.7
20260901013750 76 350 0.0 1.0 0.00 0.00 0.00 96 1014.6
20260901013246 76 224 0.0 2.0 0.00 0.00 0.00 96 1014.5
20260901012736 76 327 0.0 1.0 0.00 0.00 0.00 96 1014.8
20260901012236 76 208 0.0 1.0 0.00 0.00 0.00 96 1014.5
20260901011732 77 263 2.0 3.0 0.00 0.00 0.00 96 1014.5
20260901011227 77 322 0.0 1.0 0.00 0.00 0.00 95 1014.4
20260901010720 77 109 0.0 2.0 0.00 0.00 0.00 95 1014.1
20260901010215 77 277 2.0 3.0 0.00 0.00 0.00 95 1014.4
20260901005714 77 272 2.0 3.0 0.00 0.00 0.00 95 1014.5
20260901005209 77 241 1.0 2.0 0.00 0.00 0.00 95 1014.4
20260901004709 77 333 0.0 1.0 0.00 0.00 0.00 95 1014.6
20260901004203 77 275 1.0 3.0 0.00 0.00 0.00 95 1014.4
20260901003657 77 282 2.0 3.0 0.00 0.00 0.00 95 1014.4
20260901003152 77 225 0.0 1.0 0.00 0.00 0.00 95 1014.3
20260901002651 77 292 0.0 2.0 0.00 0.00 0.00 95 1014.5
20260901002146 78 261 1.0 2.0 0.00 0.00 0.00 94 1014.3
20260901001642 78 241 0.0 2.0 0.00 0.00 0.00 94 1014.4
20260901001137 78 309 0.0 2.0 0.00 0.00 0.00 93 1014.4
20260901000633 78 229 0.0 2.0 0.00 0.00 0.00 93 1014.4
20260901000130 78 261 0.0 2.0 0.00 0.00 0.00 93 1014.3
20260831235621 78 266 1.0 2.0 0.00 0.00 0.00 93 1014.3
20260831235116 79 278 1.0 2.0 0.00 0.00 0.00 92 1014.5
20260831234610 79 326 0.0 1.0 0.00 0.00 0.00 92 1014.4
20260831234106 79 293 0.0 1.0 0.00 0.00 0.00 91 1014.3
20260831233601 79 266 0.0 2.0 0.00 0.00 0.00 91 1014.5
20260831233057 79 241 0.0 2.0 0.00 0.00 0.00 91 1014.4
20260831232552 80 333 0.0 1.0 0.00 0.00 0.00 89 1014.3
20260831232048 81 258 0.0 1.0 0.00 0.00 0.00 88 1014.6
20260831231544 81 309 0.0 1.0 0.00 0.00 0.00 87 1014.5
20260831231039 81 269 0.0 1.0 0.00 0.00 0.00 87 1014.3
20260831230534 81 315 0.0 2.0 0.00 0.00 0.00 86 1014.3
20260831230033 81 284 0.0 2.0 0.00 0.00 0.00 85 1014.3
20260831225530 81 311 0.0 2.0 0.00 0.00 0.00 86 1014.2
20260831225029 81 301 0.0 2.0 0.00 0.00 0.00 87 1014.3
20260831224525 81 295 2.0 2.0 0.00 0.00 0.00 86 1014.4
20260831224020 82 333 0.0 2.0 0.00 0.00 0.00 85 1014.2
20260831223515 81 299 0.0 2.0 0.00 0.00 0.00 85 1014.5
20260831223011 81 269 0.0 2.0 0.00 0.00 0.00 87 1014.4
20260831222508 81 313 2.0 3.0 0.00 0.00 0.00 88 1014.5
20260831222006 82 307 1.0 2.0 0.00 0.00 0.00 90 1014.6
20260831221503 81 345 1.0 2.0 0.00 0.00 0.00 90 1014.5
20260831220958 81 266 1.0 2.0 0.00 0.00 0.00 90 1014.6
20260831220453 82 239 1.0 2.0 0.00 0.00 0.00 89 1014.7
20260831215948 82 260 1.0 3.0 0.00 0.00 0.00 88 1014.5
20260831215444 82 281 0.0 2.0 0.00 0.00 0.00 88 1014.5
20260831214940 82 282 1.0 2.0 0.00 0.00 0.00 88 1014.6
20260831214437 82 255 0.0 2.0 0.00 0.00 0.00 89 1014.7
20260831213932 82 262 0.0 2.0 0.00 0.00 0.00 88 1014.8
20260831213429 82 255 1.0 1.0 0.00 0.00 0.00 87 1014.7
20260831212929 83 327 0.0 1.0 0.00 0.00 0.00 87 1014.8
20260831212425 83 273 2.0 3.0 0.00 0.00 0.00 86 1014.5
20260831211925 83 297 0.0 1.0 0.00 0.00 0.00 86 1014.5
20260831211421 84 254 2.0 2.0 0.00 0.00 0.00 86 1014.3
20260831210920 84 310 0.0 1.0 0.00 0.00 0.00 85 1014.4
20260831210416 84 285 0.0 3.0 0.00 0.00 0.00 85 1014.5
20260831205911 82 276 0.0 2.0 0.00 0.00 0.00 86 1014.3
20260831205407 82 302 0.0 3.0 0.00 0.00 0.00 86 1014.1
20260831204906 82 288 3.0 4.0 0.00 0.00 0.00 88 1014.2
20260831204406 81 269 0.0 2.0 0.00 0.00 0.00 87 1014.1
20260831203900 81 269 2.0 2.0 0.00 0.00 0.00 88 1014.0
20260831203355 81 253 1.0 2.0 0.00 0.00 0.00 87 1014.2
20260831202852 81 277 0.0 2.0 0.00 0.00 0.00 87 1014.1
20260831202348 81 242 0.0 2.0 0.00 0.00 0.00 87 1014.1
20260831201842 81 237 0.0 1.0 0.00 0.00 0.00 87 1014.2
20260831201341 82 253 0.0 2.0 0.00 0.00 0.00 86 1014.4
20260831200837 82 231 2.0 3.0 0.00 0.00 0.00 85 1014.4
20260831200332 82 326 0.0 1.0 0.00 0.00 0.00 85 1014.4
20260831195827 83 265 0.0 1.0 0.00 0.00 0.00 84 1014.6
20260831195322 83 345 1.0 2.0 0.00 0.00 0.00 84 1014.6
20260831194818 84 255 1.0 2.0 0.00 0.00 0.00 83 1014.5
20260831194307 84 267 1.0 2.0 0.00 0.00 0.00 82 1014.4
20260831193806 85 264 1.0 3.0 0.00 0.00 0.00 80 1014.5
20260831193301 85 249 0.0 2.0 0.00 0.00 0.00 78 1014.4
20260831192757 85 252 0.0 2.0 0.00 0.00 0.00 78 1014.7
20260831192252 86 333 0.0 3.0 0.00 0.00 0.00 77 1014.8
20260831191748 86 264 1.0 4.0 0.00 0.00 0.00 77 1014.5
20260831191243 85 230 0.0 1.0 0.00 0.00 0.00 80 1014.7
20260831190738 84 147 0.0 2.0 0.00 0.00 0.00 81 1014.8
20260831190233 84 269 0.0 2.0 0.00 0.00 0.00 82 1014.7
20260831185728 84 237 0.0 3.0 0.00 0.00 0.00 82 1014.7
20260831185224 83 245 1.0 1.0 0.00 0.00 0.00 82 1014.7
20260831184722 83 320 2.0 2.0 0.00 0.00 0.00 82 1014.9
20260831184218 84 225 0.0 2.0 0.00 0.00 0.00 80 1014.8
20260831183717 84 354 0.0 2.0 0.00 0.00 0.00 79 1014.9
20260831183212 85 346 1.0 2.0 0.00 0.00 0.00 78 1014.9
20260831182711 86 44 1.0 3.0 0.00 0.00 0.00 75 1014.9
20260831182206 87 267 1.0 2.0 0.00 0.00 0.00 73 1014.8
20260831181701 88 77 0.0 2.0 0.00 0.00 0.00 73 1014.9
20260831181155 88 313 3.0 4.0 0.00 0.00 0.00 70 1014.9
20260831180645 88 295 3.0 3.0 0.00 0.00 0.00 69 1014.9
20260831180140 86 322 2.0 3.0 0.00 0.00 0.00 70 1014.7
20260831175634 86 129 0.0 3.0 0.00 0.00 0.00 75 1014.9
20260831175131 86 40 0.0 2.0 0.00 0.00 0.00 73 1014.9
20260831174625 86 327 1.0 2.0 0.00 0.00 0.00 73 1014.9
20260831174120 85 209 0.0 1.0 0.00 0.00 0.00 76 1015.0
20260831173618 85 228 1.0 2.0 0.00 0.00 0.00 77 1015.2
20260831173114 85 252 0.0 2.0 0.00 0.00 0.00 75 1014.9
20260831172609 87 269 0.0 3.0 0.00 0.00 0.00 73 1014.8
20260831172103 84 344 0.0 1.0 0.00 0.00 0.00 73 1014.9
20260831171559 86 180 0.0 3.0 0.00 0.00 0.00 72 1015.1
20260831171056 87 317 1.0 2.0 0.00 0.00 0.00 73 1015.2
20260831170552 87 332 3.0 5.0 0.00 0.00 0.00 73 1015.3
20260831170050 85 274 1.0 3.0 0.00 0.00 0.00 76 1015.4
20260831165549 85 259 1.0 2.0 0.00 0.00 0.00 77 1015.2
20260831165046 85 352 1.0 4.0 0.00 0.00 0.00 76 1015.4
20260831164542 86 330 1.0 4.0 0.00 0.00 0.00 76 1015.2
20260831164037 85 311 2.0 4.0 0.00 0.00 0.00 76 1015.3
20260831163532 85 252 0.0 2.0 0.00 0.00 0.00 76 1015.5
20260831163028 85 258 2.0 3.0 0.00 0.00 0.00 74 1015.3
20260831162526 85 199 0.0 2.0 0.00 0.00 0.00 75 1015.5
20260831162025 85 29 0.0 1.0 0.00 0.00 0.00 77 1015.6
20260831161521 85 181 0.0 3.0 0.00 0.00 0.00 77 1015.5
20260831161017 84 30 0.0 2.0 0.00 0.00 0.00 78 1015.5
20260831160516 85 269 0.0 1.0 0.00 0.00 0.00 78 1015.4
20260831160011 84 348 0.0 3.0 0.00 0.00 0.00 76 1015.7
20260831155506 84 324 2.0 3.0 0.00 0.00 0.00 75 1015.4
20260831155001 85 336 2.0 3.0 0.00 0.00 0.00 75 1015.4
20260831154458 85 255 2.0 3.0 0.00 0.00 0.00 75 1015.6
20260831153956 84 276 1.0 3.0 0.00 0.00 0.00 73 1015.7
20260831153452 83 243 1.0 1.0 0.00 0.00 0.00 75 1015.5
20260831152949 84 117 0.0 2.0 0.00 0.00 0.00 75 1015.5
20260831152444 84 310 3.0 4.0 0.00 0.00 0.00 76 1015.3
20260831151939 83 103 0.0 2.0 0.00 0.00 0.00 76 1015.4
20260831151438 83 329 0.0 3.0 0.00 0.00 0.00 78 1015.4
20260831150933 83 233 2.0 2.0 0.00 0.00 0.00 77 1015.3
20260831150428 83 355 1.0 3.0 0.00 0.00 0.00 77 1015.5
20260831145927 83 300 2.0 3.0 0.00 0.00 0.00 77 1015.6
20260831145424 83 184 0.0 2.0 0.00 0.00 0.00 79 1015.5
20260831144919 83 314 2.0 2.0 0.00 0.00 0.00 79 1015.7
20260831144409 83 301 1.0 3.0 0.00 0.00 0.00 80 1015.6
20260831143904 83 300 1.0 3.0 0.00 0.00 0.00 79 1015.6
20260831143359 83 218 0.0 3.0 0.00 0.00 0.00 79 1015.6
20260831142855 83 285 1.0 2.0 0.00 0.00 0.00 79 1015.5
20260831142350 82 248 0.0 2.0 0.00 0.00 0.00 79 1015.5
20260831141844 83 245 0.0 3.0 0.00 0.00 0.00 78 1015.5
20260831141339 81 223 2.0 4.0 0.00 0.00 0.00 78 1015.5
20260831140833 81 297 2.0 3.0 0.00 0.00 0.00 78 1015.4
20260831140328 80 309 2.0 3.0 0.00 0.00 0.00 78 1015.5
20260831135827 80 295 2.0 3.0 0.00 0.00 0.00 79 1015.5
20260831135322 80 311 3.0 3.0 0.00 0.00 0.00 80 1015.7
20260831134817 80 331 3.0 4.0 0.00 0.00 0.00 81 1015.5
20260831134314 79 328 1.0 2.0 0.00 0.00 0.00 84 1015.6
20260831133813 80 275 1.0 3.0 0.00 0.00 0.00 85 1015.5
20260831133312 80 298 1.0 2.0 0.00 0.00 0.00 85 1015.7
20260831132808 79 313 0.0 3.0 0.00 0.00 0.00 85 1015.6
20260831132306 79 310 3.0 3.0 0.00 0.00 0.00 85 1015.4
20260831131757 79 299 3.0 4.0 0.00 0.00 0.00 85 1015.4
20260831131253 78 317 1.0 3.0 0.00 0.00 0.00 88 1015.6
20260831130748 78 315 0.0 1.0 0.00 0.00 0.00 90 1015.4
20260831130244 78 264 1.0 2.0 0.00 0.00 0.00 90 1015.5
20260831125742 77 314 2.0 2.0 0.00 0.00 0.00 90 1015.4
20260831125238 77 322 1.0 3.0 0.00 0.00 0.00 91 1015.5
20260831124732 76 293 2.0 3.0 0.00 0.00 0.00 93 1015.5
20260831124228 75 10 1.0 1.0 0.00 0.00 0.00 96 1015.7
20260831123722 75 2 0.0 2.0 0.00 0.00 0.00 96 1015.6
20260831123221 74 352 1.0 3.0 0.00 0.00 0.00 97 1015.5
20260831122716 74 258 1.0 2.0 0.00 0.00 0.00 99 1015.6
20260831122212 74 247 1.0 2.0 0.00 0.00 0.00 99 1015.5
20260831121711 74 214 0.0 2.0 0.00 0.00 0.00 99 1015.1
20260831121208 74 297 1.0 1.0 0.00 0.00 0.00 99 1015.5
20260831120703 74 238 0.0 2.0 0.00 0.00 0.00 99 1015.3
20260831120158 74 238 1.0 2.0 0.00 0.00 0.00 99 1015.3
20260831115653 73 214 0.0 1.0 0.00 0.00 0.00 99 1015.4
20260831115149 73 345 0.0 1.0 0.00 0.00 0.00 99 1015.6
20260831114648 73 243 0.0 1.0 0.00 0.00 0.00 99 1015.5
20260831114143 72 13 0.0 1.0 0.00 0.00 0.00 99 1015.3
20260831113643 72 10 0.0 1.0 0.00 0.00 0.00 99 1015.3
20260831113138 72 272 0.0 2.0 0.00 0.00 0.00 99 1015.2
20260831112637 72 306 1.0 1.0 0.00 0.00 0.00 99 1015.3
20260831112132 72 254 0.0 2.0 0.00 0.00 0.00 99 1015.3
20260831111628 72 316 2.0 2.0 0.00 0.00 0.00 99 1015.1
20260831111124 72 289 0.0 2.0 0.00 0.00 0.00 99 1014.8
20260831110619 72 310 0.0 2.0 0.00 0.00 0.00 99 1014.9
20260831110115 72 230 0.0 1.0 0.00 0.00 0.00 99 1014.8
20260831105613 72 209 0.0 1.0 0.00 0.00 0.00 99 1014.6
20260831105108 72 200 0.0 1.0 0.00 0.00 0.00 99 1014.7
20260831104604 72 229 0.0 1.0 0.00 0.00 0.00 99 1014.7
20260831104100 72 208 0.0 1.0 0.00 0.00 0.00 98 1014.6
20260831103554 72 237 0.0 2.0 0.00 0.00 0.00 98 1014.6
20260831103051 72 235 0.0 1.0 0.00 0.00 0.00 98 1014.8
20260831102544 72 329 0.0 1.0 0.00 0.00 0.00 98 1014.5
20260831102040 72 312 0.0 2.0 0.00 0.00 0.00 98 1014.6
20260831101535 72 230 0.0 1.0 0.00 0.00 0.00 98 1014.6
20260831101031 73 322 0.0 1.0 0.00 0.00 0.00 98 1014.7
20260831100526 73 290 0.0 2.0 0.00 0.00 0.00 98 1014.5
20260831100023 73 195 0.0 2.0 0.00 0.00 0.00 98 1014.2
20260831095521 73 312 0.0 1.0 0.00 0.00 0.00 98 1014.6
20260831095016 73 269 0.0 1.0 0.00 0.00 0.00 98 1014.5
20260831094512 73 251 0.0 1.0 0.00 0.00 0.00 98 1014.5
20260831094008 73 322 0.0 1.0 0.00 0.00 0.00 98 1014.6
20260831093508 73 269 0.0 1.0 0.00 0.00 0.00 98 1014.4
20260831093004 73 306 0.0 1.0 0.00 0.00 0.00 98 1014.4
20260831092459 73 311 0.0 1.0 0.00 0.00 0.00 98 1014.6
20260831091955 73 358 0.0 1.0 0.00 0.00 0.00 98 1014.4
20260831091450 73 25 0.0 0.0 0.00 0.00 0.00 98 1014.6
20260831090944 73 164 0.0 0.0 0.00 0.00 0.00 98 1014.5
20260831090441 73 351 0.0 2.0 0.00 0.00 0.00 98 1014.5
20260831085937 74 335 0.0 1.0 0.00 0.00 0.00 98 1014.4